Theta_e
302 301 302 302 301 300 302 301 301 301 301 301 302 302 301 300 296 292 292 295 296 298 297 298 298 301 300 301 301 299 300 305 301 300 300 300 301 304 304 303 304 304 305 305 305 306 307 307 307 308 309 310 310 309 309 309 308 308 308 308 308 307 306 306 305 305 306 308 306 305 305 304 304 304
302 302 302 302 301 301 300 300 301 300 301 301 301 301 302 302 298 295 293 294 295 299 297 298 297 299 299 299 300 299 298 304 303 299 299 299 302 304 303 302 302 302 303 302 303 304 305 305 306 308 308 309 309 308 308 308 307 307 307 307 306 305 305 305 305 305 306 306 305 305 305 304 304 303
302 301 300 300 300 299 299 299 300 300 300 300 301 301 300 301 301 297 296 295 298 299 299 299 299 299 298 298 299 298 298 301 302 300 300 298 302 302 301 302 302 302 302 302 303 304 304 304 305 306 307 308 308 308 308 306 305 306 306 305 304 304 304 304 304 305 306 306 306 306 304 304 303 303
301 300 299 299 299 299 299 299 298 299 299 299 299 300 300 299 298 299 297 297 297 299 300 299 299 299 301 298 297 298 297 298 300 300 299 300 301 300 301 300 302 302 301 301 301 302 302 302 304 305 306 306 306 306 305 304 304 304 304 303 303 302 302 303 303 305 305 305 306 305 304 303 302 302
300 300 299 298 298 298 299 298 298 298 298 298 299 299 299 298 298 299 297 297 296 297 298 299 299 300 298 296 295 296 298 299 299 299 299 300 300 300 300 300 300 300 300 300 300 300 300 301 303 304 304 303 303 303 301 301 302 303 303 300 299 301 302 302 302 302 303 304 304 304 303 302 301 302
299 299 298 297 298 298 298 298 298 297 298 297 298 298 298 298 298 298 298 297 296 296 298 298 298 299 297 296 295 297 298 299 300 298 299 299 298 298 300 300 300 299 300 300 300 300 300 299 300 300 300 299 299 299 299 299 298 301 301 298 296 299 300 301 301 301 302 302 302 302 301 301 301 301
299 298 299 298 298 299 298 297 297 298 298 298 298 298 299 298 298 298 299 297 295 295 295 297 296 299 298 297 296 296 298 300 297 296 298 298 299 300 300 300 300 299 299 299 300 299 299 299 299 298 299 298 298 298 299 298 298 298 299 298 298 298 298 298 299 300 301 302 301 301 300 300 301 302
299 298 298 297 298 299 297 297 297 298 298 299 299 298 298 299 298 298 298 298 296 296 295 295 296 297 297 297 294 296 299 297 297 297 298 298 298 298 299 299 299 300 300 300 299 300 300 299 298 298 298 298 298 298 298 298 298 298 299 299 298 298 298 298 298 297 299 299 299 299 299 299 301 302
299 299 298 297 298 298 297 297 297 297 297 297 298 297 298 298 298 298 298 297 297 296 295 295 296 296 295 296 295 297 297 298 297 298 298 298 298 299 299 299 299 300 299 299 299 299 299 298 298 298 298 298 298 298 298 298 299 299 299 299 299 298 298 297 298 298 297 297 297 299 299 298 299 301
299 299 298 298 298 298 297 297 297 297 297 297 297 297 296 295 295 296 296 297 296 296 295 296 295 296 297 297 299 296 297 297 297 297 298 299 299 299 299 300 300 300 300 300 300 300 299 299 299 299 298 298 297 298 298 299 299 300 299 299 298 298 297 297 297 297 297 297 297 297 297 297 297 299
299 298 298 298 298 298 298 297 297 297 297 297 296 296 295 294 296 295 295 296 295 295 294 294 294 295 295 295 298 297 294 295 295 296 296 297 299 299 297 298 300 300 300 300 299 299 299 299 300 298 297 297 299 299 299 299 300 300 299 298 297 297 297 297 297 297 297 297 296 296 295 296 297 298
299 298 299 298 298 298 298 298 297 297 296 295 295 295 294 294 295 294 295 295 295 295 294 294 294 294 295 297 295 294 295 298 296 295 295 295 296 297 298 297 297 300 300 299 299 299 300 299 300 298 298 299 299 299 299 300 300 300 299 298 297 297 297 297 297 297 297 297 296 296 296 295 295 296
298 298 299 298 298 301 301 301 300 299 298 296 295 295 294 294 294 293 294 294 294 293 293 292 292 293 295 293 293 296 295 296 295 296 295 295 296 295 296 298 299 299 298 298 299 300 300 299 300 300 300 301 301 300 299 300 300 299 298 297 297 297 297 297 297 297 297 297 296 296 296 296 295 295
298 298 298 301 305 305 304 302 300 299 300 301 299 295 294 294 293 293 293 292 293 293 292 292 292 292 292 293 294 295 295 294 295 295 295 294 296 295 296 298 300 300 298 297 297 299 301 298 299 300 299 301 302 301 301 300 299 299 297 297 297 297 297 296 297 297 297 297 296 296 296 296 296 295
297 297 299 303 307 307 306 302 298 297 297 297 297 297 296 296 294 292 292 291 292 293 292 291 291 292 292 293 292 293 295 294 295 295 295 294 295 294 292 292 297 299 298 297 296 298 302 299 298 299 300 301 301 300 301 298 298 297 297 297 297 297 296 296 296 296 296 296 296 295 295 295 295 294
298 298 299 303 306 304 303 301 300 299 297 295 295 294 294 293 294 294 293 293 291 292 291 291 292 292 293 294 292 293 293 296 295 295 294 294 294 294 293 293 293 298 299 296 295 296 301 299 299 299 300 301 301 300 298 297 297 297 297 297 296 296 296 296 296 296 296 295 295 295 295 295 295 294
299 300 300 302 302 303 306 304 298 298 298 296 295 295 295 294 292 291 292 294 296 294 293 293 291 292 293 293 295 296 297 296 296 296 295 295 294 293 293 294 294 298 299 296 295 294 298 298 297 297 301 301 301 300 298 297 296 297 297 296 296 296 296 296 296 295 295 295 295 294 295 295 294 294
299 300 300 300 299 299 303 299 295 295 295 296 296 296 295 295 298 292 292 290 292 295 296 295 295 294 293 297 296 299 298 296 296 296 295 296 295 295 296 297 296 298 297 296 294 294 298 298 297 297 300 301 300 301 299 296 296 296 296 296 296 296 295 295 295 295 295 294 294 294 294 294 294 294
299 300 301 300 299 297 297 296 293 293 293 294 293 293 292 292 293 294 295 296 295 296 295 295 297 296 294 297 298 297 298 298 298 297 296 296 295 295 295 296 296 297 297 296 295 294 297 298 296 298 299 299 299 301 298 297 296 296 296 296 295 295 295 295 295 295 295 294 294 294 294 294 294 294
299 300 300 300 298 296 295 297 292 293 293 292 291 291 291 293 296 296 297 294 294 297 297 296 296 296 295 294 297 297 297 297 297 296 297 295 295 294 295 296 297 296 298 297 296 294 296 298 295 297 299 299 298 300 301 298 297 296 296 296 295 295 295 295 295 295 294 294 294 294 294 294 294 294
299 299 299 298 297 294 294 295 290 291 292 291 291 291 291 294 296 297 296 293 292 292 292 291 291 291 291 291 291 291 292 294 295 294 294 295 293 295 294 294 294 298 298 297 296 296 294 298 295 295 298 298 297 299 300 301 297 296 296 295 295 295 295 295 295 294 294 294 294 294 294 293 293 295
298 298 301 299 295 294 294 292 289 290 293 291 291 292 293 294 295 296 294 295 295 293 292 291 291 291 291 291 291 292 292 291 294 296 295 298 294 295 294 294 295 295 296 297 297 296 296 298 296 295 296 297 299 300 300 300 300 297 296 296 295 295 295 295 294 294 294 294 294 294 293 293 294 297
296 296 301 302 297 295 294 291 290 290 293 291 292 293 294 295 295 295 293 294 294 294 294 294 295 295 293 297 296 297 294 293 295 297 297 296 296 296 295 295 294 294 297 297 297 295 297 297 297 294 294 293 297 299 299 299 300 300 299 299 298 296 295 295 294 294 294 294 294 294 293 293 294 297
295 295 295 299 294 291 291 291 290 290 291 293 294 294 295 295 295 296 292 293 293 294 295 293 294 294 294 293 294 294 294 295 298 297 296 296 297 296 296 296 295 293 294 297 296 297 296 293 295 295 294 291 291 296 298 298 299 299 300 298 298 297 296 296 295 294 294 294 294 293 293 293 294 296
296 295 294 294 295 291 291 291 291 290 291 293 295 295 296 296 297 293 293 296 296 294 294 296 296 294 294 293 293 293 294 295 296 297 296 296 296 297 296 294 294 295 296 298 295 297 297 295 295 296 295 293 294 293 296 297 299 299 299 298 298 298 298 297 296 297 295 294 294 293 293 293 293 295
296 296 296 294 294 292 291 291 291 291 292 292 298 295 292 292 290 294 295 295 296 294 294 292 293 292 291 292 293 294 295 295 296 297 296 295 295 296 298 297 296 294 297 298 292 298 296 295 296 294 294 293 294 294 293 295 298 299 298 299 299 298 298 296 296 296 297 297 297 294 293 293 293 294
297 297 296 297 295 292 291 291 291 291 291 292 295 291 290 290 290 292 294 293 293 292 292 292 291 291 290 291 293 293 294 296 295 295 295 295 295 295 296 296 297 298 300 299 298 298 296 295 295 294 293 293 291 293 294 293 294 297 296 297 298 298 299 297 296 296 296 296 296 294 293 293 293 293
298 297 296 296 293 292 292 291 291 291 291 294 292 291 290 289 291 295 293 292 292 291 290 290 290 290 290 290 291 293 295 296 296 296 295 296 295 295 296 296 296 296 296 296 296 296 296 296 296 296 295 293 291 291 291 294 295 295 294 296 297 298 298 297 296 296 297 297 296 296 296 295 296 296
298 295 294 293 292 292 292 291 291 291 291 290 291 290 290 292 293 293 292 291 290 290 290 290 290 290 291 291 292 293 294 294 295 295 296 296 295 295 294 294 295 296 297 297 297 296 295 296 296 296 294 293 292 294 292 292 293 294 295 293 294 295 296 297 297 296 296 296 295 295 295 295 295 296
294 293 292 292 292 292 293 294 294 293 293 290 290 289 291 294 292 292 291 290 289 290 290 289 290 291 291 291 293 293 293 293 294 295 296 296 298 297 297 298 299 298 296 296 297 296 295 295 296 296 295 296 294 292 292 291 292 295 294 294 294 295 298 296 295 296 295 294 294 295 296 297 296 296
295 294 294 294 292 293 292 293 293 293 292 291 291 292 293 292 292 292 291 291 291 291 290 290 291 290 291 291 291 293 293 294 294 294 294 294 295 296 296 296 296 297 300 297 295 296 296 296 296 295 294 295 296 296 291 290 291 293 294 295 295 291 293 295 295 295 295 294 295 297 297 297 297 296
297 297 293 293 294 295 294 293 292 292 292 291 290 291 291 291 291 291 291 292 290 291 291 291 290 290 291 291 292 292 292 293 293 293 294 294 295 295 295 295 295 296 297 298 299 296 293 296 295 295 295 294 290 293 295 291 292 293 293 295 294 295 296 295 294 294 294 294 295 295 296 297 297 297
294 294 293 293 293 293 292 291 292 291 291 291 290 291 290 290 290 290 291 290 290 291 290 290 291 290 291 291 291 291 291 292 293 293 293 293 293 294 293 294 295 295 295 297 298 298 297 295 294 294 295 295 295 294 291 292 293 293 292 293 293 293 295 295 295 294 294 294 293 294 295 297 298 298
293 293 293 293 291 293 293 292 291 290 291 290 289 290 289 290 290 289 290 291 291 292 291 291 290 291 290 291 291 291 291 292 293 292 291 293 293 293 293 294 295 295 293 293 294 295 295 296 295 296 295 293 296 295 295 290 292 293 294 292 291 292 294 295 294 294 294 293 292 292 294 295 297 298
292 290 291 291 292 291 294 292 291 290 290 290 290 290 290 290 289 288 290 291 290 290 288 290 291 290 290 291 291 290 291 291 292 293 292 292 293 293 294 293 294 295 293 294 294 294 292 293 293 295 297 296 297 300 295 296 294 295 295 294 293 292 291 294 293 294 294 295 294 292 293 295 296 297
290 291 291 290 291 292 291 291 291 291 292 291 291 291 289 289 288 289 289 290 291 289 289 289 288 289 289 290 289 290 290 289 290 291 291 292 292 292 292 293 293 293 293 293 293 293 291 292 291 292 292 292 291 290 294 295 292 295 293 291 294 291 291 290 292 294 295 294 295 294 290 291 293 296
290 290 292 292 292 291 291 291 292 292 292 292 291 291 290 290 289 290 291 288 290 289 290 288 289 289 289 288 288 288 288 289 289 289 289 291 291 291 291 290 290 291 291 293 293 292 291 291 291 292 292 291 289 289 291 292 291 292 295 293 292 291 290 290 290 291 293 294 294 294 292 292 293 295
291 291 292 292 292 292 292 291 290 290 291 290 290 290 290 291 291 291 291 290 289 289 289 289 288 288 289 288 288 288 288 289 288 287 288 290 290 290 290 291 292 292 292 293 292 292 290 291 290 292 292 289 289 289 289 292 292 293 292 294 291 290 293 290 291 291 291 292 293 292 295 292 293 295
293 292 292 292 292 293 292 291 290 290 290 289 289 289 289 290 290 290 289 289 290 290 289 289 289 289 289 290 289 288 288 289 288 288 288 289 290 291 291 291 291 292 290 291 293 292 290 290 291 292 293 291 289 290 291 289 290 293 291 290 291 290 291 291 289 291 292 292 292 294 295 297 296 292
292 293 293 293 293 293 293 293 291 291 291 290 290 290 290 289 289 289 289 288 289 290 290 289 289 288 288 289 288 289 289 290 290 290 290 290 290 290 290 290 291 291 290 289 290 292 292 292 291 293 293 293 292 290 290 289 289 290 290 293 290 292 290 291 289 289 291 293 293 292 292 294 292 294
291 291 292 293 293 293 293 292 292 292 292 292 291 290 290 290 290 290 290 290 288 289 288 288 288 289 288 289 288 288 288 288 288 288 289 289 288 288 288 286 288 289 289 289 291 290 292 295 291 285 289 291 289 290 289 290 291 292 292 293 291 290 291 291 292 290 290 292 292 291 291 291 290 292
292 292 293 293 292 292 292 292 292 291 291 291 291 290 290 290 289 289 289 288 290 288 288 288 288 288 288 289 289 288 288 289 289 288 288 289 289 288 286 286 289 288 287 289 289 292 293 290 289 290 291 289 289 290 290 290 289 291 291 291 292 291 290 290 290 291 294 293 291 291 291 292 292 291
291 292 292 292 292 292 292 291 291 291 291 290 290 290 289 289 289 289 289 289 289 289 289 289 289 289 289 289 289 288 288 288 288 289 289 288 288 289 289 288 289 289 289 289 292 291 289 290 290 289 289 289 289 290 290 290 290 289 289 291 292 291 291 290 289 289 289 289 290 290 292 290 290 289
292 292 293 293 292 292 292 292 291 290 290 290 289 289 289 288 288 288 289 289 289 289 289 289 289 289 289 289 288 288 288 289 289 289 289 289 288 289 290 290 288 288 288 288 289 289 289 289 288 289 290 291 289 289 290 289 290 291 290 289 289 289 290 292 292 291 290 290 289 289 289 289 289 289
293 293 293 293 292 292 292 292 291 290 290 289 289 288 288 288 288 289 288 288 289 289 288 288 289 289 289 288 288 287 288 288 289 289 289 289 289 288 288 289 289 287 288 288 287 289 290 288 288 287 288 288 286 289 289 288 289 289 288 287 288 289 290 290 291 292 292 294 291 288 289 289 290 289
Wind_Speed
5 5 6 5 5 4 3 3 4 4 4 5 7 8 10 9 9 7 6 5 4 3 1 3 1 1 1 2 1 2 2 3 4 3 3 4 4 7 10 9 9 10 10 10 11 11 12 13 13 14 15 16 16 16 16 16 16 17 19 20 21 21 21 19 17 19 21 26 30 31 31 29 27 24
5 5 5 5 5 3 4 4 3 4 4 6 6 7 5 7 10 7 8 6 3 3 0 1 3 1 1 2 2 1 2 4 4 4 4 5 4 9 8 10 10 10 11 11 11 12 12 13 14 16 16 16 16 16 16 16 17 18 19 19 19 19 20 19 18 20 22 26 29 31 31 29 26 25
6 7 6 4 5 4 5 4 4 3 3 4 5 5 4 4 4 9 6 6 4 2 3 0 1 2 2 1 1 2 2 4 4 4 4 4 8 9 6 9 10 11 11 12 11 12 12 12 13 14 15 16 16 16 17 17 17 18 17 16 17 18 19 18 18 20 22 25 29 32 31 28 26 24
5 7 7 5 5 4 5 5 4 4 3 3 4 5 5 4 5 6 6 6 6 1 1 4 2 2 1 2 3 3 3 2 3 3 4 5 6 4 5 7 8 9 11 11 12 12 12 11 12 13 14 15 16 16 16 15 15 15 15 15 15 16 17 17 18 20 22 24 29 31 31 27 26 26
5 6 7 5 4 4 6 4 4 4 4 4 4 4 5 5 6 7 5 6 6 1 1 1 2 1 1 1 2 3 3 5 5 4 3 4 4 4 4 5 7 10 11 11 12 12 12 12 13 14 14 13 14 14 14 14 13 14 14 16 16 12 14 16 17 18 21 23 28 31 30 28 25 25
4 6 7 6 5 4 7 5 5 4 4 4 5 3 5 6 6 4 5 4 6 5 2 2 1 1 1 2 1 2 4 5 5 6 6 4 3 4 5 5 6 10 11 12 12 12 12 13 12 12 12 13 13 13 14 14 15 14 15 15 16 17 15 14 17 18 21 22 24 29 30 28 26 24
6 6 6 6 5 4 6 5 4 4 4 3 5 5 3 6 4 2 6 7 4 7 4 2 2 2 1 1 1 1 2 3 2 4 5 5 5 3 4 5 5 7 10 12 12 12 12 12 12 12 12 13 13 13 14 15 15 15 15 15 16 17 17 15 14 17 20 22 22 27 29 29 26 25
7 7 7 5 6 6 7 5 4 3 3 4 4 5 3 5 5 5 5 5 6 4 6 3 3 1 0 1 1 2 3 2 2 1 3 3 4 4 4 5 5 7 11 11 11 12 12 12 12 12 12 12 13 13 14 14 15 15 15 15 16 17 18 16 15 15 17 19 21 23 28 28 27 26
7 7 7 7 6 7 7 5 4 4 5 4 4 5 3 4 4 4 5 5 5 7 6 4 1 1 2 2 1 1 4 4 4 3 3 4 5 5 5 4 4 7 10 9 10 12 12 11 12 12 12 12 13 13 13 14 15 15 16 16 17 18 18 17 16 15 15 17 20 22 27 28 27 26
6 7 7 7 7 7 8 6 5 4 5 4 5 5 4 4 4 5 5 5 6 7 5 4 3 1 1 2 1 0 2 3 4 5 6 3 0 4 7 6 5 4 4 5 7 9 10 11 12 12 12 12 12 12 13 14 15 15 16 17 18 18 18 17 16 16 15 16 18 21 22 25 27 27
6 6 7 7 7 7 7 8 7 6 5 4 5 3 4 3 5 5 5 5 6 6 5 2 1 2 1 0 1 1 1 0 1 2 5 6 5 2 3 6 5 4 6 7 7 7 8 9 7 10 11 11 12 13 13 14 15 15 16 17 18 19 19 18 17 16 16 16 18 18 20 20 24 27
6 6 6 7 6 7 6 7 7 7 6 5 6 3 1 2 5 5 5 5 6 5 4 2 3 1 1 1 2 2 2 2 1 1 1 4 5 7 5 2 5 3 4 6 8 7 8 9 10 11 12 11 13 13 12 14 14 15 16 17 18 19 19 19 18 16 15 16 17 19 20 20 20 24
6 6 6 6 6 6 7 8 8 9 8 8 9 7 5 4 5 5 4 5 5 4 4 3 1 2 1 1 2 3 1 0 2 1 1 3 3 4 6 4 3 3 4 6 7 6 5 6 6 5 6 8 10 11 12 11 13 15 15 16 17 18 19 19 19 18 17 17 17 18 20 21 21 19
6 6 6 6 10 12 13 12 12 11 10 9 8 9 9 7 6 6 6 5 5 5 6 5 5 4 4 4 3 2 3 2 1 2 1 4 5 5 4 4 2 1 2 6 7 7 3 3 6 6 6 7 7 6 7 7 11 13 15 16 16 17 18 18 19 19 19 18 18 18 19 20 21 21
7 6 6 7 11 12 12 9 11 9 11 11 7 9 10 8 9 9 7 6 6 6 5 4 4 5 5 5 2 3 2 2 2 3 2 3 3 2 4 6 5 2 2 4 5 8 5 3 6 7 6 6 7 7 7 13 14 14 15 16 16 16 17 18 18 19 19 19 18 18 19 20 20 21
8 9 9 8 6 6 8 7 7 7 8 9 10 11 10 8 6 4 5 8 5 5 6 5 5 5 5 3 3 3 1 2 2 2 2 3 3 3 3 2 5 3 3 4 5 8 6 4 5 7 7 6 6 8 11 14 15 15 15 15 16 16 17 17 17 18 18 19 19 18 18 20 20 20
9 8 7 6 5 6 10 7 7 7 6 5 9 10 9 6 5 5 2 0 5 7 6 6 5 6 4 3 4 4 3 2 4 5 3 1 2 2 3 4 4 6 3 3 2 5 6 3 6 7 7 6 6 8 11 14 15 15 15 15 15 16 16 17 17 17 18 18 18 18 18 19 20 19
7 7 8 7 6 5 6 6 7 7 6 6 7 7 6 5 4 3 3 3 5 6 6 6 5 6 5 4 4 4 4 1 3 3 4 3 5 3 4 5 6 7 2 2 2 4 6 2 5 6 7 6 7 7 11 14 14 15 16 16 16 16 16 16 17 17 17 17 18 19 18 18 20 19
8 8 8 9 9 7 6 5 7 7 7 7 6 7 6 5 4 3 3 3 4 4 3 5 5 4 6 5 4 3 3 4 4 4 4 4 5 6 6 6 6 6 2 3 1 4 7 2 6 6 6 7 8 7 9 13 15 16 16 16 16 16 16 16 16 17 17 17 17 18 19 18 19 21
8 8 9 7 7 7 7 6 10 8 8 8 8 7 6 4 2 3 3 3 4 5 5 5 4 3 5 5 4 4 4 3 3 2 2 2 3 4 3 5 5 3 2 3 2 2 5 3 3 6 6 5 7 7 6 12 15 16 16 16 16 16 16 16 16 17 17 16 17 17 18 18 19 20
7 7 7 7 7 7 7 8 11 10 9 8 8 7 7 4 2 4 2 3 5 8 8 5 4 5 6 7 8 8 8 6 3 2 1 4 3 2 4 4 4 5 3 1 2 2 5 3 3 6 6 7 6 6 7 7 12 15 15 16 17 16 15 16 16 17 17 16 16 16 17 18 19 19
7 7 12 8 7 8 8 9 12 12 10 8 8 7 7 5 5 5 3 0 0 2 5 5 5 6 7 8 9 9 8 8 7 5 5 3 4 2 2 3 3 6 4 2 3 3 4 5 1 4 5 6 4 6 7 8 9 12 12 16 17 16 16 16 16 16 17 17 16 15 16 17 18 15
5 6 8 12 8 8 8 12 13 14 10 8 8 7 6 6 6 6 5 5 4 2 2 2 3 4 4 4 3 4 6 6 8 7 6 1 3 4 3 4 3 4 4 1 2 3 4 5 2 2 6 4 5 5 7 8 7 7 7 9 11 16 17 16 15 16 17 17 16 15 15 17 14 12
6 6 6 7 11 12 10 12 14 14 12 9 7 6 6 7 7 6 5 6 5 5 5 5 2 3 3 4 3 2 2 2 4 6 5 5 4 5 5 4 3 3 4 2 3 2 2 1 4 0 1 4 5 6 7 8 8 7 6 8 8 12 14 14 12 15 15 16 16 16 15 14 14 9
8 7 7 5 9 12 11 12 14 14 13 10 8 8 7 8 6 5 5 6 5 5 4 3 2 3 3 4 3 2 2 2 1 3 5 5 5 6 6 5 3 5 6 4 4 1 3 1 4 3 2 2 4 4 6 7 8 7 8 7 7 8 8 8 8 9 12 15 15 15 15 15 13 11
7 8 8 8 9 13 13 13 14 14 14 13 8 9 11 10 8 6 6 5 5 4 3 2 3 3 3 3 3 3 2 2 2 3 4 5 5 6 6 7 6 4 5 1 6 2 2 3 3 3 2 2 5 5 6 6 6 7 8 8 8 8 6 7 8 9 9 8 8 11 12 15 14 12
9 8 8 7 11 14 14 14 14 14 15 11 9 12 12 10 10 5 4 5 5 4 3 3 4 4 4 4 4 3 3 2 3 3 4 4 5 5 6 6 6 7 8 1 3 3 3 4 2 2 4 3 4 6 5 5 6 7 9 9 10 8 5 6 8 9 9 9 8 12 11 9 10 12
8 8 8 9 13 14 14 15 14 14 12 10 14 13 13 11 8 5 5 5 5 4 3 4 4 5 4 4 4 4 3 3 4 4 4 3 4 5 5 6 7 7 8 7 4 4 5 4 3 3 3 4 4 5 6 6 6 6 7 9 9 8 8 7 8 9 8 8 8 8 7 8 7 7
9 11 14 13 14 14 14 15 15 12 12 14 13 14 11 8 5 6 6 5 4 4 5 5 5 5 6 5 5 3 3 4 3 3 4 3 3 3 5 6 6 6 5 5 5 4 5 5 4 2 2 3 3 4 3 6 5 7 5 7 9 10 9 7 8 8 10 9 8 8 7 6 7 7
13 13 13 14 14 13 12 10 8 8 9 13 13 10 8 6 6 6 6 5 5 6 5 5 6 6 3 3 3 3 2 3 4 1 3 5 4 2 3 4 5 5 5 5 4 4 4 4 5 4 4 3 2 3 2 2 5 7 6 5 7 9 4 9 10 8 9 10 10 8 7 6 6 6
7 10 10 9 11 9 11 11 10 8 7 6 5 5 6 7 7 7 8 8 8 7 5 5 6 5 4 2 2 3 3 5 4 2 3 3 6 4 2 2 5 7 6 3 5 4 4 3 3 4 4 5 5 5 1 0 3 5 7 6 5 5 9 9 9 9 9 9 9 7 7 7 7 5
6 6 4 4 3 4 4 4 3 4 5 6 6 6 6 6 6 5 3 1 4 5 5 4 3 3 3 4 4 3 3 5 5 2 3 3 5 3 2 1 5 4 5 7 2 4 2 2 2 3 3 2 2 6 5 2 3 3 6 6 6 6 5 6 9 9 10 9 8 9 9 7 7 7
4 4 5 5 5 5 6 6 6 5 4 5 5 7 6 5 5 5 5 6 7 7 5 6 6 6 4 4 3 3 4 6 5 2 3 3 4 2 2 6 5 4 5 5 6 6 1 1 1 3 4 4 6 5 1 4 3 2 3 4 6 7 8 7 6 8 9 9 9 9 9 8 7 6
6 6 7 7 6 7 7 8 7 7 7 7 6 5 6 5 5 6 6 7 7 6 7 6 5 5 3 4 4 3 4 6 4 2 4 3 2 3 4 5 5 4 3 4 5 4 4 4 5 2 2 3 5 7 6 3 3 4 3 2 2 6 7 7 8 7 6 3 6 9 9 9 8 9
7 6 7 7 8 8 9 6 6 6 7 6 6 6 6 5 8 7 6 7 6 6 4 5 5 4 4 5 5 5 5 5 5 3 2 3 3 5 5 4 6 5 4 4 4 2 1 2 3 4 4 6 7 3 6 7 1 4 6 3 3 4 5 7 7 8 7 6 5 7 8 9 9 9
8 7 7 6 7 8 8 6 7 7 7 7 7 5 5 6 6 7 7 8 7 6 5 4 4 4 4 5 6 5 5 4 5 5 4 3 4 4 3 5 5 5 3 4 5 2 1 1 1 1 1 3 1 3 4 6 5 1 2 4 4 4 4 5 7 5 6 8 7 6 5 7 9 9
7 7 8 8 8 8 7 8 8 8 8 7 7 8 7 7 8 8 9 6 7 6 7 4 4 4 4 4 5 3 4 4 4 4 3 4 3 3 4 5 6 5 4 5 4 2 1 1 1 1 2 1 3 3 4 1 4 4 2 2 5 3 4 5 5 5 4 5 7 6 5 6 8 10
7 7 8 7 7 7 7 7 7 7 7 7 7 7 7 7 6 7 4 6 7 4 5 4 4 3 4 4 3 3 4 3 3 4 6 5 3 3 4 4 3 4 4 5 3 2 2 2 2 3 1 1 2 3 3 3 3 1 3 2 3 4 4 4 4 5 6 4 4 5 5 5 7 9
5 6 8 7 7 6 7 6 7 8 8 8 7 7 7 6 6 6 6 7 7 7 6 5 5 6 4 5 4 4 4 3 3 4 4 3 4 5 5 4 4 4 2 4 3 2 1 2 3 3 3 1 1 2 2 2 4 3 1 3 4 3 2 3 3 3 3 6 6 7 2 3 5 6
8 7 7 7 6 6 6 6 7 7 7 7 7 6 6 7 7 7 7 7 6 7 6 5 5 4 4 4 4 3 3 6 6 4 4 4 3 4 5 3 4 2 1 2 3 4 2 3 4 4 4 4 2 1 0 3 4 5 4 5 6 5 3 3 3 3 4 4 6 5 6 5 7 8
7 7 7 6 6 7 8 8 8 7 7 7 7 6 6 7 7 7 8 7 5 5 5 4 4 6 5 4 4 4 5 5 5 5 5 4 4 4 4 3 2 2 2 3 4 4 7 3 1 1 1 0 0 1 0 1 3 3 4 2 2 5 7 6 3 2 3 4 4 3 4 5 4 5
8 8 6 7 8 8 7 7 7 7 7 7 7 7 7 7 5 8 7 7 7 5 5 5 5 5 5 4 4 4 5 6 5 4 4 3 3 3 3 3 3 2 3 4 4 6 2 2 1 1 1 1 1 1 2 2 3 3 2 3 3 2 4 7 7 6 6 3 3 4 3 3 1 5
8 7 7 7 7 6 7 7 7 8 7 7 7 7 7 5 4 5 5 5 6 5 5 5 4 4 4 4 4 5 5 5 5 5 4 4 4 4 4 5 5 4 4 5 4 3 1 2 1 1 0 1 1 1 2 3 3 2 2 3 4 3 3 3 6 9 7 6 6 2 2 2 3 5
7 7 6 6 7 7 7 8 8 7 7 7 8 6 5 5 6 7 6 6 5 6 6 5 4 5 5 5 4 3 4 5 5 5 5 5 5 5 5 5 4 3 2 3 3 3 1 1 0 1 1 1 1 1 2 2 3 1 1 3 3 3 4 3 2 3 3 1 3 2 5 5 5 5
6 6 6 6 7 7 7 7 7 7 7 7 5 5 5 5 6 5 6 6 6 6 5 5 5 5 5 4 4 5 6 6 4 4 3 3 3 4 4 4 3 3 3 3 2 3 1 0 0 0 0 0 1 1 1 2 3 2 2 2 4 3 3 2 2 3 3 2 5 4 1 1 2 3
Wind_Direction
146 138 154 148 142 148 134 118 136 151 150 167 172 173 169 167 150 166 178 205 182 198 154 142 53 345 322 326 324 330 354 18 29 5 1 348 342 343 347 342 342 346 344 345 341 339 335 334 333 335 335 337 340 338 333 330 327 326 327 327 329 327 321 315 310 312 316 326 332 335 337 336 333 329
133 124 113 127 123 132 120 122 122 129 154 161 177 185 179 167 161 161 167 200 211 136 40 175 143 122 314 309 324 314 345 4 23 5 1 350 340 345 338 341 343 343 342 340 339 335 332 329 330 332 333 334 336 335 332 332 328 325 327 327 326 325 322 317 312 313 318 327 333 336 339 337 333 331
135 133 126 121 120 125 117 106 97 90 121 149 161 170 143 174 154 155 139 138 222 167 134 312 231 186 248 305 292 338 352 358 6 2 353 342 344 344 332 331 337 339 336 334 331 329 326 321 322 324 326 331 332 331 331 330 324 323 323 322 325 327 323 315 312 315 321 328 335 338 339 336 333 330
136 135 132 139 138 135 113 100 91 94 77 98 130 155 151 129 137 142 139 147 158 204 163 160 191 218 273 336 11 5 334 345 3 360 346 339 342 336 330 328 326 325 327 326 327 325 322 319 320 324 326 329 329 330 328 323 318 317 320 327 327 325 321 314 312 316 322 328 335 338 338 336 332 330
137 135 130 136 132 141 114 106 98 84 85 82 77 109 126 135 148 142 122 125 120 67 325 158 187 300 309 285 346 3 341 343 343 349 348 342 335 329 323 321 317 319 322 323 324 322 320 323 324 327 327 326 325 324 322 319 316 316 323 328 330 319 317 314 310 313 322 328 336 339 338 336 330 327
138 138 134 133 127 110 112 109 95 99 98 96 101 100 135 145 160 180 112 119 132 146 114 149 347 295 291 171 293 14 348 338 336 340 338 336 339 327 325 323 319 318 318 320 321 321 322 321 322 322 325 324 322 320 319 319 319 321 326 328 328 330 325 313 310 314 323 330 335 339 339 336 332 327
143 136 136 139 131 115 101 89 89 85 90 80 99 104 104 125 137 159 131 129 107 144 162 204 234 232 281 156 73 328 271 272 285 305 332 330 323 322 320 313 303 308 316 320 319 317 317 320 322 325 324 321 318 318 319 319 320 323 327 330 331 333 329 318 308 312 321 329 333 339 340 336 332 329
152 147 133 143 136 121 112 107 103 74 85 89 89 90 65 103 107 109 104 119 126 156 141 219 197 240 333 278 296 298 264 297 320 283 304 297 297 307 322 314 308 320 319 316 312 315 321 323 324 323 320 319 320 320 320 320 322 325 329 332 333 333 331 324 313 312 318 324 331 337 340 337 332 330
151 148 147 148 138 131 123 120 117 119 102 83 88 84 70 84 86 77 98 104 113 134 141 143 265 292 267 260 304 320 360 340 341 320 334 319 314 325 325 308 306 305 312 314 317 321 322 323 323 322 322 323 321 321 321 322 325 329 331 333 334 333 332 327 319 316 317 322 330 335 339 339 334 330
150 147 144 147 143 140 142 146 135 125 117 98 89 89 72 77 73 93 83 93 110 113 130 140 141 12 359 314 240 51 37 8 335 336 333 317 154 346 344 331 317 322 314 330 329 326 323 321 319 318 322 321 320 323 327 328 330 332 332 333 334 332 331 327 322 319 319 322 329 333 334 336 336 332
143 139 140 143 146 142 142 142 147 132 112 103 95 76 101 63 102 96 99 112 118 126 127 81 92 146 221 303 321 93 10 247 86 347 335 336 331 347 10 323 320 317 317 312 308 306 297 299 306 317 322 322 326 332 332 331 332 332 332 333 331 330 329 328 324 321 320 322 328 330 331 331 333 335
138 138 139 138 143 141 144 144 145 143 130 113 98 53 20 153 112 115 117 118 122 129 136 111 166 270 175 329 285 300 339 68 18 73 332 298 316 327 329 267 288 300 309 322 326 328 329 331 331 333 331 329 333 332 334 330 329 331 331 330 328 328 329 328 327 325 322 323 327 328 328 328 327 330
129 127 132 136 136 141 148 151 162 169 159 143 143 152 179 170 132 121 128 128 125 130 132 131 38 129 158 266 349 332 23 345 293 305 25 276 271 294 310 302 236 255 318 321 321 318 326 314 317 317 320 326 331 330 330 326 328 329 328 326 327 327 327 328 329 328 326 325 327 328 327 328 328 327
124 134 137 152 153 154 161 168 169 161 159 163 164 162 162 161 146 152 146 153 153 147 154 168 161 157 199 226 216 213 252 276 312 315 275 307 321 323 311 273 254 266 351 327 326 308 294 305 308 327 324 314 324 321 321 321 324 324 326 326 326 326 325 327 328 328 327 327 329 329 327 327 329 329
134 138 152 167 170 170 168 167 168 169 173 177 167 161 165 165 161 156 156 171 165 163 163 163 160 175 194 236 213 221 266 239 256 278 299 290 297 357 340 331 312 141 334 337 313 307 318 348 324 319 317 318 323 322 318 318 321 326 328 326 325 325 326 327 327 327 327 327 328 330 330 329 331 331
153 165 174 183 167 157 157 161 166 177 189 171 161 161 164 172 191 221 175 159 171 168 153 170 194 168 192 237 196 248 210 261 275 234 265 257 288 311 310 268 290 270 56 345 321 300 302 322 313 322 320 321 319 313 312 316 325 328 328 326 325 326 327 327 327 327 327 326 326 328 331 332 334 333
170 165 158 153 149 164 166 161 165 167 168 159 157 154 150 161 185 202 201 168 164 153 147 168 188 198 178 185 235 210 209 132 315 321 307 230 233 245 266 260 281 299 29 335 286 283 301 337 329 318 313 326 318 315 316 320 324 327 329 328 327 329 328 327 327 329 329 328 326 327 330 333 336 336
162 158 157 158 166 177 164 159 162 159 153 148 141 143 151 168 181 188 180 137 146 170 163 161 188 217 172 192 211 214 155 170 273 289 279 290 300 280 263 279 268 273 330 265 299 289 310 8 327 318 315 322 315 308 310 314 323 331 332 330 329 330 329 328 330 332 333 331 329 327 330 333 337 338
169 164 166 173 173 172 172 165 166 155 157 149 150 152 165 179 200 231 218 203 173 188 189 181 201 182 193 217 203 174 190 212 220 228 260 288 284 293 291 263 236 265 235 189 183 298 302 18 331 309 310 318 310 303 310 319 328 333 333 330 329 330 331 332 333 335 336 335 333 331 330 333 337 337
171 171 173 172 166 170 175 180 170 169 152 153 159 165 166 193 237 250 237 250 247 227 202 202 207 209 206 212 208 197 195 215 228 257 286 286 270 282 287 311 316 300 198 204 194 273 293 321 308 300 308 312 309 310 309 325 328 331 331 329 329 332 334 335 336 336 337 338 338 335 333 333 334 334
170 174 173 173 170 167 187 178 175 169 160 159 169 168 169 181 202 251 266 251 244 238 231 217 205 209 223 237 243 238 231 231 196 144 319 254 182 223 326 306 325 297 329 256 195 199 283 308 337 300 309 316 296 300 309 315 326 329 328 329 331 333 336 338 338 337 336 340 342 340 338 336 334 332
168 176 179 173 167 173 189 176 175 170 163 168 171 166 167 182 209 239 230 2 324 200 206 219 226 229 237 244 255 255 242 223 193 171 220 209 154 211 198 268 264 293 297 244 164 282 272 306 311 304 299 303 270 307 316 324 321 328 330 331 330 333 338 340 337 336 337 341 342 343 343 341 336 345
167 178 187 185 178 184 186 175 176 174 174 170 171 167 164 188 206 222 185 179 169 153 154 240 232 227 219 233 249 264 244 214 197 207 230 108 209 250 235 236 295 308 291 257 190 320 292 324 323 352 329 327 297 292 321 322 316 322 326 328 328 334 339 336 335 337 338 338 341 345 346 345 342 356
185 184 185 195 188 194 181 176 177 180 179 170 166 155 175 185 216 203 185 205 184 184 193 202 200 269 298 291 273 255 250 252 221 211 220 220 215 239 256 235 217 238 255 249 193 295 270 157 300 123 280 310 314 321 321 316 319 312 320 330 321 331 332 335 337 334 335 338 341 341 345 347 347 352
178 183 193 201 198 194 185 180 185 184 185 179 163 181 183 198 195 135 181 204 200 191 192 201 252 266 288 278 275 279 293 255 208 207 212 221 218 209 219 234 224 250 249 244 195 345 276 299 296 311 308 235 251 307 308 306 308 321 329 326 315 327 331 329 332 330 336 339 339 342 341 344 349 350
188 191 188 191 199 194 189 186 190 190 189 190 177 194 204 199 151 168 185 183 167 190 176 212 251 256 269 277 269 256 208 197 217 213 214 216 223 226 223 211 219 254 271 218 178 195 252 286 233 304 281 331 299 312 313 313 302 321 324 318 326 327 334 322 324 332 335 334 334 344 334 332 338 342
198 193 195 199 192 189 190 190 193 195 195 190 203 204 207 196 187 172 156 164 171 188 203 220 249 259 256 261 257 268 278 230 199 215 216 228 225 230 232 232 230 238 266 250 209 232 205 255 209 256 293 300 288 302 304 315 315 321 321 326 326 320 329 331 333 329 331 333 328 329 328 328 329 326
188 183 196 200 194 191 190 193 194 199 193 196 208 209 203 191 174 169 154 169 184 192 216 229 249 255 252 246 266 247 232 249 280 290 278 255 223 232 237 232 235 236 256 263 250 226 209 238 266 207 231 277 289 308 313 294 292 310 318 317 314 324 337 342 326 323 326 332 325 336 335 333 333 333
189 195 195 195 190 191 190 194 197 198 198 204 207 209 194 166 151 172 175 177 173 196 219 225 237 255 244 227 244 273 273 278 284 286 284 251 237 239 247 249 245 247 237 245 235 213 205 217 249 265 228 216 257 282 273 294 300 300 326 326 327 326 318 316 334 333 327 327 333 328 332 322 325 329
185 189 194 194 195 194 194 188 183 189 200 205 209 201 173 172 171 173 171 174 180 213 215 220 228 236 235 230 236 261 290 292 272 284 289 315 280 216 258 282 270 240 232 235 220 217 211 211 239 250 275 262 219 278 280 305 309 306 315 325 313 304 305 340 332 327 333 334 328 325 321 331 327 331
181 193 191 194 195 196 192 190 192 193 181 172 182 176 180 177 182 175 183 185 196 209 216 217 227 234 235 276 285 260 247 264 262 206 245 269 272 272 233 222 270 295 280 185 209 220 189 222 227 218 282 308 305 277 290 215 282 298 309 324 337 330 310 315 326 334 338 329 313 310 334 336 335 342
177 165 179 165 139 131 108 147 121 164 161 175 168 176 180 187 179 181 161 152 204 218 205 232 235 259 219 250 244 253 246 251 262 220 217 222 260 250 180 219 258 259 283 305 303 166 175 204 218 237 239 239 283 302 328 287 269 280 302 315 317 304 300 331 331 330 333 316 329 340 331 338 341 342
103 122 141 146 156 160 164 154 174 167 165 183 187 178 179 178 177 177 180 194 207 202 176 214 220 237 231 245 247 249 262 252 252 199 228 233 242 269 217 240 256 240 269 283 297 301 247 196 225 262 243 227 221 237 270 306 304 309 310 311 321 321 332 336 335 328 329 337 342 330 329 339 347 349
148 171 178 183 176 170 178 189 185 188 185 188 186 202 194 184 182 190 195 205 210 179 198 211 209 229 228 259 253 255 256 276 265 227 216 246 213 228 225 237 245 245 221 258 277 284 316 332 335 289 226 247 226 217 207 207 266 301 304 304 313 327 322 327 332 329 332 326 319 330 339 338 346 352
174 177 187 188 187 187 196 199 195 196 190 195 197 195 184 193 198 201 199 208 191 191 204 208 215 218 216 244 248 245 247 257 277 260 220 233 226 231 238 234 255 253 235 253 256 249 271 321 335 333 337 2 349 318 203 213 263 292 317 331 344 328 321 332 330 331 329 330 349 348 332 340 340 344
189 183 184 186 190 184 198 205 197 197 198 197 193 193 186 203 206 198 210 206 184 191 190 201 203 208 217 232 244 244 250 253 266 271 262 234 231 242 234 242 253 260 260 254 261 258 255 252 287 333 351 329 344 335 322 189 198 302 332 324 331 330 323 326 327 305 338 348 350 347 347 334 326 337
182 188 185 183 186 185 199 192 192 196 193 193 193 181 193 202 201 205 213 171 182 198 202 189 204 203 213 218 234 237 240 232 253 242 254 247 238 235 248 250 236 250 259 252 247 262 235 233 187 244 309 330 344 332 298 299 304 290 185 330 320 332 329 324 322 337 353 341 335 357 333 316 324 336
189 174 188 190 192 193 197 190 189 195 193 190 184 186 204 210 198 199 156 174 195 192 190 196 206 202 213 211 220 237 231 221 232 257 249 246 239 235 226 245 256 239 241 264 256 247 212 225 228 228 163 319 321 314 315 316 316 64 184 12 314 309 326 327 340 343 326 334 339 331 318 332 342 344
189 182 189 193 194 187 189 192 191 200 190 182 188 195 196 202 197 175 182 198 193 192 190 199 205 205 211 213 213 220 231 216 220 227 240 238 220 233 244 233 248 242 234 268 266 235 202 211 214 202 211 224 266 283 281 287 274 284 162 301 263 291 311 343 316 317 324 336 337 327 301 276 249 313
195 191 192 191 198 196 203 186 192 195 187 194 198 195 190 196 194 193 194 200 193 200 198 203 210 206 210 215 214 214 226 230 233 240 236 239 234 225 239 236 229 237 216 260 284 284 266 239 201 209 194 228 250 316 292 272 281 285 280 289 212 209 302 323 311 322 318 333 325 333 345 349 16 359
193 196 203 195 194 192 191 194 194 190 201 195 196 197 200 195 192 200 199 199 200 192 200 207 202 207 220 212 204 200 220 228 233 235 231 238 239 228 232 222 237 206 227 255 258 275 256 262 231 209 276 309 98 143 199 252 288 311 322 321 165 267 269 268 275 287 282 307 322 324 347 356 347 359
192 201 194 189 194 194 190 193 192 194 199 192 193 196 197 199 208 207 206 212 208 212 213 214 211 204 217 217 205 195 210 231 234 232 220 223 235 232 214 206 224 189 190 232 229 234 188 92 240 254 178 152 155 208 277 286 286 292 301 302 316 275 287 293 281 263 267 298 341 356 336 345 316 19
194 200 198 197 194 189 190 196 188 191 197 188 196 193 194 201 200 203 204 205 209 207 213 208 209 202 215 210 203 195 206 225 227 232 223 208 210 222 212 208 214 203 203 232 252 272 245 269 287 226 185 179 205 195 276 285 279 275 282 301 312 334 322 272 271 292 292 242 220 257 311 331 338 16
193 195 203 190 190 193 193 192 192 188 191 188 193 183 193 195 203 210 207 209 202 212 215 209 205 208 212 211 193 194 207 222 218 216 220 215 202 211 220 214 198 203 217 243 265 273 286 254 234 203 222 200 165 205 260 280 283 268 287 291 299 319 318 327 332 208 219 231 201 302 304 265 262 271
190 197 194 193 193 192 191 190 189 185 184 185 180 190 194 200 211 209 209 211 214 214 208 205 207 207 210 197 184 206 215 218 218 223 226 224 211 207 219 223 198 188 219 219 227 271 259 242 221 217 201 194 178 233 269 252 273 305 305 306 305 312 312 335 342 348 338 349 161 126 104 275 303 335